Location: San Antonio
(29.4240°N, 98.4930°W)
Time: 08:32:39
(UTC-05:00)

S-56A Canister/Altair - Visible Passes

Search period start: 14 July 2024 00:00
Search period end: 24 July 2024 00:00
Orbit: 638 x 2488 km, 38.9° (Epoch: 14 July)

Date Brightness Start Highest point End Pass type
(mag) Time Alt. Az. Time Alt. Az. Time Alt. Az.
14 Jul 9.3 22:16:54 10° W 22:22:59 37° SSW 22:27:24 24° SSE visible
15 Jul 9.1 21:43:24 10° WNW 21:49:11 42° SSW 21:55:28 17° SSE visible
16 Jul 8.8 21:09:56 10° WNW 21:15:26 47° SSW 21:23:25 10° SE visible
16 Jul 10.6 23:17:26 10° WSW 23:20:10 12° SW 23:20:56 12° SSW visible
17 Jul 10.4 22:42:55 10° WSW 22:46:17 13° SW 22:49:07 11° SSW visible
18 Jul 10.3 22:08:44 10° WSW 22:12:26 15° SW 22:16:53 10° S visible
19 Jul 10.1 21:34:46 10° WSW 21:38:39 17° SW 21:43:24 10° S visible
20 Jul 9.9 21:00:57 10° W 21:04:54 19° SW 21:09:51 10° S visible
